Weather History for KBIV - March, 2012

Change the Weather History Date:

Tuesday, March 13, 2012

  Actual Average Record
Temperature  
Mean Temperature 51 °F 36 °F  
Max Temperature 58 °F 44 °F 75 °F (1990)
Min Temperature 44 °F 28 °F 0 °F (2014)
Degree Days  
Heating Degree Days 14 29  
Month to date heating degree days 407  
Since 1 July heating degree days 4907  
Cooling Degree Days 0 0  
Month to date cooling degree days 0  
Year to date cooling degree days 0  
Growing Degree Days 2 (Base 50)    
Moisture  
Dew Point 40 °F    
Average Humidity 63    
Maximum Humidity 86    
Minimum Humidity 39    
Precipitation  
Precipitation 0.00 in 0.08 in 1.00 in (1976)
Month to date precipitation 1.32 1.02  
Year to date precipitation 4.91  
Sea Level Pressure  
Sea Level Pressure 30.01 in    
Wind  
Wind Speed 10 mph (West)    
Max Wind Speed 21 mph    
Max Gust Speed 28 mph    
Visibility 10 miles    
Events      
T = Trace of Precipitation, MM = Missing Value Source: NWS Daily Summary

Daily Weather History Graph

Daily Weather History Graph

Search for Another Location

Airport or City:

Trip Planner

Search our weather history database for the weather conditions in past years. The results will help you decide how hot, cold, wet, or windy it might be!

Date:

Astronomy

Mar. 13, 2012 Rise Set
Actual Time 7:59 AM EDT 7:49 PM EDT
Civil Twilight 7:30 AM EDT 8:17 PM EDT
Nautical Twilight 6:58 AM EDT 8:50 PM EDT
Astronomical Twilight 6:24 AM EDT 9:23 PM EDT
Moon 1:29 AM EDT (3/13) 11:02 AM EDT (3/13)
Length of Visible Light 12h 46m
Length of Day
11h 50m
Waning Gibbous, 66% of the Moon is Illuminated
Mar 13
Waning Gibbous
Mar 14
Last Quarter
Mar 22
New
Mar 30
First Quarter
Apr 6
Full

Hourly Weather History & Observations

Time (EDT) Temp. Dew Point Humidity Pressure Visibility Wind Dir Wind Speed Gust Speed Precip Events Conditions
12:53 AM 52.0 °F 44.1 °F 74% 29.85 in 10.0 mi West 9.2 mph - N/A   Clear
1:53 AM 48.9 °F 44.1 °F 83% 29.88 in 10.0 mi SW 6.9 mph - N/A   Clear
2:53 AM 48.0 °F 43.0 °F 83% 29.90 in 10.0 mi SW 8.1 mph - N/A   Clear
3:53 AM 48.9 °F 44.1 °F 83% 29.91 in 10.0 mi WSW 13.8 mph - N/A   Clear
4:53 AM 50.0 °F 44.1 °F 80% 29.91 in 10.0 mi WSW 12.7 mph - N/A   Clear
5:53 AM 50.0 °F 45.0 °F 83% 29.93 in 10.0 mi WSW 16.1 mph - N/A   Clear
6:53 AM 52.0 °F 46.0 °F 80% 29.95 in 10.0 mi West 16.1 mph 23.0 mph N/A   Partly Cloudy
7:53 AM 50.0 °F 45.0 °F 83% 29.92 in 10.0 mi West 15.0 mph - N/A   Clear
8:53 AM 50.0 °F 44.1 °F 80% 29.94 in 10.0 mi West 16.1 mph - N/A   Clear
9:53 AM 51.1 °F 44.1 °F 77% 30.01 in 10.0 mi West 11.5 mph 18.4 mph N/A   Clear
10:53 AM 53.1 °F 44.1 °F 71% 29.99 in 10.0 mi West 13.8 mph 23.0 mph N/A   Clear
11:53 AM 54.0 °F 41.0 °F 62% 30.00 in 10.0 mi WNW 13.8 mph 25.3 mph N/A   Clear
12:53 PM 53.1 °F 41.0 °F 64% 30.02 in 10.0 mi WNW 13.8 mph 21.9 mph N/A   Clear
1:53 PM 54.0 °F 37.9 °F 55% 30.09 in 10.0 mi West 11.5 mph - N/A   Clear
2:53 PM 55.9 °F 37.0 °F 49% 30.08 in 10.0 mi West 13.8 mph - N/A   Clear
3:53 PM 57.0 °F 34.0 °F 42% 30.02 in 10.0 mi West 13.8 mph 20.7 mph N/A   Clear
4:53 PM 57.0 °F 34.0 °F 42% 30.08 in 10.0 mi West 13.8 mph 20.7 mph N/A   Clear
5:53 PM 57.0 °F 32.0 °F 39% 30.08 in 10.0 mi West 8.1 mph - N/A   Clear
6:53 PM 55.0 °F 34.0 °F 45% 30.08 in 10.0 mi WSW 5.8 mph - N/A   Clear
7:53 PM 50.0 °F 34.0 °F 54% 30.09 in 10.0 mi Calm Calm - N/A   Clear
8:53 PM 48.9 °F 35.1 °F 59% 30.10 in 10.0 mi Calm Calm - N/A   Clear
9:53 PM 48.0 °F 36.0 °F 63% 30.10 in 10.0 mi SSE 3.5 mph - N/A   Clear
10:53 PM 46.9 °F 35.1 °F 63% 30.11 in 10.0 mi Calm Calm - N/A   Clear
11:53 PM 45.0 °F 35.1 °F 68% 30.11 in 10.0 mi Calm Calm - N/A   Clear